TimeCDT,TemperatureF,Dew PointF,Humidity,Sea Level PressureIn,VisibilityMPH,Wind Direction,Wind SpeedMPH,Gust SpeedMPH,PrecipitationIn,Events,Conditions,WindDirDegrees,DateUTC
12:53 AM,62.1,61.0,96,29.58,0.5,NW,4.6,-,0.00,Fog,Fog,320,2013-03-24 05:53:00
1:13 AM,62.6,62.6,100,29.58,1.0,Calm,Calm,-,0.00,Rain,Light Rain,0,2013-03-24 06:13:00
1:24 AM,62.6,60.8,94,29.58,0.8,Calm,Calm,-,0.00,,Mist,0,2013-03-24 06:24:00
1:42 AM,62.6,62.6,100,29.59,1.8,NW,3.5,-,0.00,,Overcast,310,2013-03-24 06:42:00
1:50 AM,62.6,62.6,100,29.59,2.0,NW,5.8,-,0.00,,Overcast,320,2013-03-24 06:50:00
1:53 AM,62.1,62.1,100,29.59,1.8,NW,4.6,-,0.00,,Overcast,310,2013-03-24 06:53:00
2:20 AM,60.8,60.8,100,29.62,2.0,NNW,13.8,21.9,0.01,Rain,Light Rain,330,2013-03-24 07:20:00
2:29 AM,60.8,60.8,100,29.62,4.0,NNW,11.5,19.6,0.02,Rain,Light Rain,340,2013-03-24 07:29:00
2:53 AM,60.1,57.9,93,29.63,10.0,NNW,12.7,24.2,0.02,Rain,Light Rain,340,2013-03-24 07:53:00
3:03 AM,60.8,57.2,88,29.64,10.0,North,9.2,-,0.00,Rain,Light Rain,350,2013-03-24 08:03:00
3:41 AM,59.0,55.4,88,29.63,10.0,North,4.6,-,0.00,,Scattered Clouds,10,2013-03-24 08:41:00
3:53 AM,57.9,55.9,93,29.62,10.0,Calm,Calm,-,0.00,,Clear,0,2013-03-24 08:53:00
4:53 AM,55.9,55.0,97,29.63,7.0,Calm,Calm,-,N/A,,Clear,0,2013-03-24 09:53:00
4:59 AM,55.4,53.6,94,29.63,1.8,Calm,Calm,-,N/A,,Clear,0,2013-03-24 09:59:00
5:17 AM,53.6,53.6,100,29.63,1.8,Calm,Calm,-,N/A,,Partly Cloudy,0,2013-03-24 10:17:00
5:53 AM,53.1,52.0,96,29.63,0.5,Calm,Calm,-,N/A,Fog,Fog,0,2013-03-24 10:53:00
6:04 AM,53.6,51.8,94,29.63,0.2,Calm,Calm,-,N/A,Fog,Fog,0,2013-03-24 11:04:00
6:14 AM,51.8,51.8,100,29.62,0.5,Calm,Calm,-,N/A,Fog,Fog,0,2013-03-24 11:14:00
6:49 AM,51.8,50.0,94,29.64,1.2,West,3.5,-,N/A,,Scattered Clouds,270,2013-03-24 11:49:00
6:53 AM,51.1,50.0,96,29.64,6.0,Calm,Calm,-,N/A,,Scattered Clouds,0,2013-03-24 11:53:00
7:35 AM,51.8,51.8,100,29.66,4.0,WNW,3.5,-,N/A,,Clear,290,2013-03-24 12:35:00
7:53 AM,55.0,54.0,96,29.67,10.0,WNW,3.5,-,N/A,,Clear,300,2013-03-24 12:53:00
8:53 AM,59.0,55.9,90,29.70,10.0,West,9.2,-,N/A,,Partly Cloudy,270,2013-03-24 13:53:00
9:53 AM,64.0,57.0,78,29.71,10.0,West,4.6,-,N/A,,Clear,280,2013-03-24 14:53:00
10:45 AM,64.4,57.2,77,29.73,10.0,NW,17.3,-,0.01,,Mostly Cloudy,310,2013-03-24 15:45:00
10:53 AM,64.0,57.0,78,29.73,10.0,WNW,17.3,21.9,0.01,,Overcast,300,2013-03-24 15:53:00
11:15 AM,60.8,55.4,82,29.75,10.0,WNW,12.7,20.7,N/A,,Overcast,290,2013-03-24 16:15:00
11:53 AM,61.0,55.9,83,29.75,10.0,WNW,13.8,-,N/A,,Overcast,290,2013-03-24 16:53:00
12:53 PM,60.1,55.0,83,29.77,10.0,WNW,10.4,20.7,N/A,,Overcast,290,2013-03-24 17:53:00
1:17 PM,62.6,53.6,72,29.76,10.0,West,17.3,28.8,N/A,,Overcast,280,2013-03-24 18:17:00
1:53 PM,61.0,52.0,72,29.76,10.0,WNW,13.8,25.3,N/A,,Overcast,290,2013-03-24 18:53:00
2:53 PM,60.1,48.9,67,29.77,10.0,WNW,17.3,24.2,N/A,,Overcast,290,2013-03-24 19:53:00
3:01 PM,62.6,48.2,59,29.77,10.0,WNW,18.4,25.3,N/A,,Mostly Cloudy,290,2013-03-24 20:01:00
3:53 PM,64.0,39.9,41,29.75,10.0,WNW,20.7,31.1,N/A,,Partly Cloudy,290,2013-03-24 20:53:00
4:53 PM,64.0,34.0,33,29.77,10.0,WNW,24.2,29.9,N/A,,Clear,300,2013-03-24 21:53:00
5:53 PM,61.0,33.1,35,29.80,10.0,NNW,13.8,26.5,N/A,,Clear,330,2013-03-24 22:53:00
6:53 PM,55.9,30.0,37,29.84,10.0,WNW,16.1,26.5,N/A,,Clear,300,2013-03-24 23:53:00
7:53 PM,53.1,32.0,45,29.88,10.0,NW,12.7,19.6,N/A,,Clear,320,2013-03-25 00:53:00
8:53 PM,48.9,30.9,50,29.93,10.0,NW,12.7,21.9,N/A,,Clear,310,2013-03-25 01:53:00
9:53 PM,46.9,30.9,54,29.95,10.0,NW,9.2,18.4,N/A,,Clear,320,2013-03-25 02:53:00
10:53 PM,46.0,30.9,56,29.98,10.0,NW,11.5,19.6,N/A,,Clear,320,2013-03-25 03:53:00
11:53 PM,44.1,30.9,60,30.00,10.0,NW,9.2,-,N/A,,Clear,310,2013-03-25 04:53:00